• In Hungary
  • List of Countries
  • For 7 days
  • Water Temperature
  • Satellite Maps
  • Weather Map
  • News
  • Weather Widgets
  • user-avatar
    Login

    Hourly Weather Ropotamo

    Today, 22 September, Saturday

    Time Temperature Precipitation Wind Pressure Humidity
    00:00 +19°C° 0 mm 2 mps 760 mmHg 90%
    01:00 +19°C° 0 mm 1 mps 759 mmHg 90%
    02:00 +19°C° 0 mm 1 mps 759 mmHg 92%
    03:00 +19°C° 0 mm 1 mps 759 mmHg 92%
    04:00 +18°C° 0 mm 1 mps 759 mmHg 92%
    05:00 +18°C° 0 mm 1 mps 759 mmHg 92%
    06:00 +20°C° 0 mm 1 mps 759 mmHg 85%
    07:00 +21°C° 0 mm 1 mps 759 mmHg 79%
    08:00 +23°C° 0 mm 1 mps 759 mmHg 71%
    09:00 +25°C° 0 mm 1 mps 759 mmHg 61%
    10:00 +27°C° 0 mm 1 mps 759 mmHg 52%
    11:00 +29°C° 0 mm 2 mps 759 mmHg 42%
    12:00 +30°C° 0 mm 2 mps 759 mmHg 39%
    13:00 +31°C° 0 mm 2 mps 759 mmHg 37%
    14:00 +31°C° 0 mm 2 mps 759 mmHg 34%
    15:00 +30°C° 0 mm 2 mps 759 mmHg 38%
    16:00 +29°C° 0 mm 3 mps 758 mmHg 42%
    17:00 +28°C° 0 mm 3 mps 758 mmHg 46%
    18:00 +26°C° 0 mm 2 mps 759 mmHg 55%
    19:00 +24°C° 0 mm 2 mps 759 mmHg 65%
    20:00 +21°C° 0 mm 2 mps 759 mmHg 74%
    21:00 +21°C° 0 mm 2 mps 759 mmHg 73%
    22:00 +21°C° 0 mm 1 mps 759 mmHg 71%
    23:00 +21°C° 0 mm 1 mps 759 mmHg 70%

    Tomorrow, 23 September, Sunday

    Time Temperature Precipitation Wind Pressure Humidity
    00:00 +21°C° 0 mm 1 mps 759 mmHg 69%
    01:00 +20°C° 0 mm 2 mps 759 mmHg 68%
    02:00 +20°C° 0 mm 2 mps 760 mmHg 66%
    03:00 +20°C° 0 mm 2 mps 760 mmHg 66%
    04:00 +20°C° 0 mm 2 mps 760 mmHg 65%
    05:00 +19°C° 0 mm 2 mps 760 mmHg 65%
    06:00 +21°C° 0 mm 2 mps 760 mmHg 60%
    07:00 +22°C° 0 mm 3 mps 760 mmHg 55%
    08:00 +25°C° 0 mm 3 mps 761 mmHg 49%
    09:00 +26°C° 0 mm 3 mps 761 mmHg 46%
    10:00 +28°C° 0 mm 4 mps 761 mmHg 42%
    11:00 +30°C° 0 mm 4 mps 761 mmHg 38%
    12:00 +30°C° 0 mm 4 mps 761 mmHg 37%
    13:00 +32°C° 0 mm 4 mps 761 mmHg 37%
    14:00 +32°C° 0 mm 4 mps 761 mmHg 36%
    15:00 +30°C° 0 mm 4 mps 761 mmHg 42%
    16:00 +29°C° 0 mm 4 mps 761 mmHg 48%
    17:00 +28°C° 0 mm 4 mps 761 mmHg 54%
    18:00 +26°C° 0 mm 4 mps 761 mmHg 64%
    19:00 +24°C° 0 mm 3 mps 761 mmHg 75%
    20:00 +21°C° 0 mm 3 mps 761 mmHg 85%
    21:00 +20°C° 0 mm 3 mps 761 mmHg 86%
    22:00 +20°C° 0 mm 3 mps 761 mmHg 87%
    23:00 +20°C° 0 mm 2 mps 761 mmHg 88%

    Day after tomorrow, 24 September, Monday

    Time Temperature Precipitation Wind Pressure Humidity
    00:00 +20°C° 0 mm 2 mps 761 mmHg 89%
    01:00 +20°C° 0 mm 2 mps 760 mmHg 89%
    02:00 +20°C° 0 mm 2 mps 760 mmHg 89%
    03:00 +20°C° 0 mm 2 mps 759 mmHg 88%
    04:00 +20°C° 0 mm 2 mps 759 mmHg 87%
    05:00 +19°C° 0 mm 2 mps 758 mmHg 86%
    06:00 +21°C° 0 mm 2 mps 758 mmHg 79%
    07:00 +23°C° 0 mm 2 mps 758 mmHg 71%
    08:00 +25°C° 0 mm 2 mps 757 mmHg 63%
    09:00 +27°C° 0 mm 3 mps 757 mmHg 53%
    10:00 +30°C° 0 mm 3 mps 757 mmHg 43%
    11:00 +33°C° 0 mm 4 mps 756 mmHg 32%
    12:00 +34°C° 0 mm 4 mps 756 mmHg 30%
    13:00 +35°C° 0 mm 4 mps 755 mmHg 27%
    14:00 +36°C° 0 mm 4 mps 755 mmHg 24%
    15:00 +35°C° 0 mm 4 mps 755 mmHg 26%
    16:00 +35°C° 0 mm 4 mps 754 mmHg 28%
    17:00 +34°C° 0 mm 3 mps 754 mmHg 30%
    18:00 +32°C° 0 mm 4 mps 755 mmHg 33%
    19:00 +29°C° 0 mm 5 mps 756 mmHg 37%
    20:00 +27°C° 0 mm 6 mps 757 mmHg 40%
    21:00 +24°C° 0 mm 7 mps 757 mmHg 42%
    22:00 +23°C° 0 mm 9 mps 758 mmHg 44%
    23:00 +21°C° 0 mm 10 mps 759 mmHg 45%

    25 September, Tuesday

    Time Temperature Precipitation Wind Pressure Humidity
    00:00 +19°C° 0 mm 10 mps 760 mmHg 48%
    01:00 +18°C° 0 mm 9 mps 760 mmHg 51%
    02:00 +17°C° 0 mm 9 mps 761 mmHg 54%
    03:00 +17°C° 0 mm 9 mps 761 mmHg 55%
    04:00 +16°C° 0 mm 8 mps 762 mmHg 56%
    05:00 +16°C° 0 mm 8 mps 762 mmHg 58%
    06:00 +15°C° 0.1 mm 8 mps 763 mmHg 61%
    07:00 +15°C° 0.1 mm 8 mps 763 mmHg 65%
    08:00 +15°C° 0.1 mm 7 mps 764 mmHg 68%
    09:00 +14°C° 0.3 mm 7 mps 764 mmHg 71%
    10:00 +14°C° 0.3 mm 7 mps 764 mmHg 74%
    11:00 +13°C° 0.3 mm 6 mps 765 mmHg 77%
    12:00 +13°C° 0.5 mm 6 mps 765 mmHg 77%
    13:00 +13°C° 0.5 mm 5 mps 765 mmHg 76%
    14:00 +13°C° 0.5 mm 5 mps 765 mmHg 76%
    15:00 +13°C° 0.4 mm 4 mps 765 mmHg 75%
    16:00 +13°C° 0.4 mm 4 mps 765 mmHg 74%
    17:00 +13°C° 0.4 mm 4 mps 765 mmHg 73%
    18:00 +13°C° 0 mm 4 mps 766 mmHg 76%
    19:00 +12°C° 0 mm 4 mps 766 mmHg 79%
    20:00 +11°C° 0 mm 4 mps 767 mmHg 82%
    21:00 +10°C° 0 mm 5 mps 767 mmHg 78%
    22:00 +10°C° 0 mm 6 mps 767 mmHg 73%
    23:00 +9°C° 0 mm 7 mps 768 mmHg 69%

    26 September, Wednesday

    Time Temperature Precipitation Wind Pressure Humidity
    00:00 +9°C° 0.1 mm 8 mps 768 mmHg 65%
    01:00 +9°C° 0.1 mm 8 mps 768 mmHg 62%
    02:00 +8°C° 0.1 mm 9 mps 768 mmHg 58%
    03:00 +8°C° 0 mm 9 mps 769 mmHg 57%
    04:00 +8°C° 0 mm 9 mps 769 mmHg 57%
    05:00 +7°C° 0 mm 9 mps 769 mmHg 57%
    06:00 +8°C° 0 mm 10 mps 770 mmHg 55%
    07:00 +9°C° 0 mm 10 mps 770 mmHg 53%
    08:00 +9°C° 0 mm 10 mps 770 mmHg 52%
    09:00 +11°C° 0 mm 10 mps 770 mmHg 47%
    10:00 +13°C° 0 mm 11 mps 770 mmHg 42%
    11:00 +14°C° 0 mm 11 mps 770 mmHg 37%
    12:00 +14°C° 0 mm 11 mps 770 mmHg 35%
    13:00 +16°C° 0 mm 11 mps 770 mmHg 32%
    14:00 +16°C° 0 mm 11 mps 770 mmHg 30%
    15:00 +16°C° 0 mm 11 mps 770 mmHg 31%
    16:00 +14°C° 0 mm 10 mps 769 mmHg 33%
    17:00 +14°C° 0 mm 10 mps 769 mmHg 35%
    18:00 +13°C° 0 mm 10 mps 770 mmHg 38%
    19:00 +12°C° 0 mm 10 mps 770 mmHg 41%
    20:00 +11°C° 0 mm 9 mps 770 mmHg 45%
    21:00 +11°C° 0.1 mm 9 mps 770 mmHg 46%
    22:00 +10°C° 0.1 mm 9 mps 770 mmHg 48%
    23:00 +10°C° 0.1 mm 9 mps 770 mmHg 50%

    27 September, Thursday

    Time Temperature Precipitation Wind Pressure Humidity
    00:00 +10°C° 0.1 mm 9 mps 770 mmHg 52%
    01:00 +10°C° 0.1 mm 9 mps 769 mmHg 53%
    02:00 +10°C° 0.1 mm 9 mps 769 mmHg 54%
    03:00 +10°C° 0 mm 9 mps 769 mmHg 56%
    04:00 +10°C° 0 mm 8 mps 769 mmHg 57%
    05:00 +9°C° 0 mm 8 mps 768 mmHg 59%
    06:00 +10°C° 0.1 mm 8 mps 768 mmHg 58%
    07:00 +11°C° 0.1 mm 8 mps 768 mmHg 58%
    08:00 +12°C° 0.1 mm 8 mps 768 mmHg 57%
    09:00 +13°C° 0 mm 8 mps 768 mmHg 56%
    10:00 +15°C° 0 mm 8 mps 767 mmHg 55%
    11:00 +17°C° 0 mm 8 mps 767 mmHg 53%
    12:00 +17°C° 0 mm 8 mps 767 mmHg 52%
    13:00 +18°C° 0 mm 8 mps 766 mmHg 50%
    14:00 +18°C° 0 mm 8 mps 765 mmHg 49%
    15:00 +18°C° 0 mm 8 mps 765 mmHg 51%
    16:00 +17°C° 0 mm 7 mps 765 mmHg 54%
    17:00 +17°C° 0 mm 7 mps 764 mmHg 56%
    18:00 +16°C° 0 mm 7 mps 764 mmHg 62%
    19:00 +15°C° 0 mm 6 mps 764 mmHg 67%
    20:00 +13°C° 0 mm 6 mps 764 mmHg 72%
    21:00 +13°C° 0 mm 5 mps 764 mmHg 74%
    22:00 +13°C° 0 mm 5 mps 764 mmHg 76%
    23:00 +13°C° 0 mm 5 mps 763 mmHg 77%
    Show more